This demonstration page uses our WeatherBlox Daily Observations layout. Learn more.

Left ArrowRight Arrow

Hourly Observations for May 13, 2019

Temp ( °F °C ) Dew Point ( °F °C ) Humidity (%) Winds ( mph kmh ) Pressure ( in mb ) Visibility ( mi km ) Precip ( " mm )
12:52 am 00:52 Clear 47 8.3 44 6.7 90 90 Calm 29.90 1013 10 16 0.00 0.00
1:52 am 01:52 Clear 45 7.2 42 5.6 90 90 Calm 29.90 1013 10 16 0.00 0.00
2:06 am 02:06 Clear with Mist and Fog 45 7.2 42 5.6 90 90 Calm 29.93 1013 2 2 0.00 0.00
2:17 am 02:17 Clear with Mist and Fog 44 6.7 42 5.6 93 93 SSW 3 6 29.94 1014 4 6 0.00 0.00
2:52 am 02:52 Clear 45 7.2 42 5.6 90 90 SW 5 7 29.90 1013 7 11 0.00 0.00
3:52 am 03:52 Clear 48 8.9 45 7.2 89 89 Calm 29.91 1013 9 14 0.00 0.00
4:06 am 04:06 Mostly Cloudy with Mist and Fog 45 7.2 42 5.6 90 90 Calm 29.95 1014 1 2 0.00 0.00
4:13 am 04:13 Mostly Cloudy with Fog 44 6.7 42 5.6 93 93 Calm 29.95 1014 1 1 0.00 0.00
4:25 am 04:25 Mostly Clear with Mist and Fog 44 6.7 41 5 89 89 Calm 29.96 1014 1 2 0.00 0.00
4:30 am 04:30 Mostly Clear with Mist and Fog 44 6.7 41 5 89 89 Calm 29.96 1014 3 5 0.00 0.00
4:50 am 04:50 Mostly Clear with Mist and Fog 45 7 41 5 87 87 Calm 29.96 1014 3 4 0.00 0.00
4:52 am 04:52 Mostly Clear with Mist and Fog 44 6.7 41 5 89 89 Calm 29.92 1013 4 6 0.00 0.00
5:52 am 05:52 Clear 45 7.2 42 5.6 90 90 NE 5 7 29.93 1014 10 16 0.00 0.00
6:52 am 06:52 Sunny 43 6.1 41 5 93 93 Calm 29.96 1015 9 14 0.00 0.00
7:52 am 07:52 Sunny 52 11.1 48 8.9 86 86 NNE 6 9 29.98 1015 10 16 0.00 0.00
8:52 am 08:52 Sunny 57 13.9 49 9.4 74 74 NNE 6 9 30.00 1016 10 16 0.00 0.00
9:52 am 09:52 Sunny 60 15.6 49 9.4 67 67 N 5 7 30.00 1016 10 16 0.00 0.00
10:52 am 10:52 Sunny 62 16.7 48 8.9 60 60 Calm 30.00 1016 10 16 0.00 0.00
11:52 am 11:52 Mostly Sunny 65 18.3 50 10 59 59 NE 3 6 30.00 1016 10 16 0.00 0.00
12:52 pm 12:52 Sunny 66 18.9 48 8.9 52 52 NNE 8 13 29.99 1016 10 16 0.00 0.00
1:52 pm 13:52 Sunny 67 19.4 49 9.4 53 53 N 5 7 29.97 1015 10 16 0.00 0.00
2:52 pm 14:52 Sunny 68 20 49 9.4 51 51 N 9 15 29.96 1015 10 16 0.00 0.00
3:52 pm 15:52 Mostly Sunny 69 20.6 49 9.4 49 49 Calm 29.94 1014 10 16 0.00 0.00
4:52 pm 16:52 Sunny 70 21.1 49 9.4 47 47 NNW 8 13 29.94 1014 10 16 0.00 0.00
5:52 pm 17:52 Sunny 69 20.6 47 8.3 45 45 Calm 29.94 1014 10 16 0.00 0.00
6:52 pm 18:52 Sunny 69 20.6 48 8.9 47 47 Calm 29.93 1014 10 16 0.00 0.00
7:52 pm 19:52 Sunny 66 18.9 46 7.8 49 49 NNE 5 7 29.94 1014 10 16 0.00 0.00
8:52 pm 20:52 Clear 63 17.2 47 8.3 56 56 E 7 11 29.96 1014 10 16 0.00 0.00
9:52 pm 21:52 Clear 60 15.6 47 8.3 62 62 E 6 9 29.97 1015 10 16 0.00 0.00
10:52 pm 22:52 Clear 53 11.7 46 7.8 77 77 SSE 5 7 29.98 1015 10 16 0.00 0.00
11:52 pm 23:52 Clear 54 12.2 46 7.8 75 75 ESE 3 6 29.98 1015 10 16 0.00 0.00

Powered by AerisWeather